Date String (YYYY-MM-DD hh:mm:ss) UTC,Instrument flags,Ambient pressure (hPa),Sample flow (lpm),Bypass flow (lpm),Sample temperature (°C),Ambient temperature (°C),ASC tube jacket temperature (°C),LED temperature (°C),Box temperature (°C),Sample RH (%),Span deviation,Mass concentration (μg/m³),Mass concentration (μg/m³),Mass concentration (μg/m³)
DateTimeUTC,F1_M11,P_M11,Q1_M11,Q2_M11,T1_M11,T2_M11,T3_M11,T4_M11,T5_M11,U1_M11,ZSPAN_M11,X0_M11,X2_M11,X1_M11
2022-05-02 02:00:00,,0820.0,4.99,0.00,29.8,28.9,00.0,38.8,31.5,13.3,0000.3,0020.93,0008.03,0005.34
2022-05-02 02:01:00,,0819.9,5.01,0.00,29.8,28.9,00.0,38.8,31.5,13.6,0003.1,0021.14,0008.16,0005.38
2022-05-02 02:02:00,,0819.9,4.99,0.00,29.7,28.9,00.0,38.8,31.5,13.6,0003.0,0022.11,0008.14,0005.36
2022-05-02 02:03:00,,0820.0,5.01,0.00,29.7,28.9,00.0,38.8,31.4,13.8,0002.8,0023.33,0008.27,0005.43
2022-05-02 02:04:00,,0819.9,4.99,0.00,29.7,28.9,00.0,38.8,31.4,13.9,0002.6,0023.53,0008.45,0005.54
2022-05-02 02:05:00,,0819.9,5.01,0.00,29.7,28.9,00.0,38.8,31.4,13.8,0002.4,0024.32,0008.64,0005.65
2022-05-02 02:06:00,,0820.0,5.00,0.00,29.7,28.9,00.0,38.8,31.4,13.8,0002.3,0025.77,0008.72,0005.67
2022-05-02 02:07:00,,0820.0,4.99,0.00,29.7,28.8,00.0,38.8,31.3,13.9,0002.7,0027.02,0008.79,0005.67
2022-05-02 02:08:00,,0820.0,5.01,0.00,29.7,28.8,00.0,38.7,31.4,13.8,0002.8,0027.26,0008.91,0005.71
2022-05-02 02:09:00,,0820.0,4.99,0.00,29.7,28.8,00.0,38.7,31.3,13.7,0002.8,0027.86,0009.02,0005.79
2022-05-02 02:10:00,,0820.0,5.01,0.00,29.7,28.8,00.0,38.7,31.3,13.6,0003.1,0029.02,0009.08,0005.83
2022-05-02 02:11:00,,0820.0,4.99,0.00,29.6,28.7,00.0,38.7,31.3,13.6,0002.9,0029.52,0009.15,0005.89
2022-05-02 02:12:00,,0820.0,5.01,0.00,29.6,28.7,00.0,38.7,31.3,13.7,0002.6,0029.75,0009.11,0005.93
2022-05-02 02:13:00,,0820.1,4.98,0.00,29.6,28.7,00.0,38.7,31.3,13.7,0002.5,0028.97,0009.08,0005.95
2022-05-02 02:14:00,,0820.0,5.02,0.00,29.6,28.7,00.0,38.7,31.3,13.7,0002.7,0028.32,0009.03,0005.94
2022-05-02 02:15:00,,0820.1,4.98,0.00,29.6,28.6,00.0,38.7,31.2,13.8,0002.1,0028.21,0008.91,0005.91
2022-05-02 02:16:00,,0820.1,5.02,0.00,29.5,28.6,00.0,38.6,31.2,13.9,0002.8,0028.68,0008.86,0005.88
2022-05-02 02:17:00,,0820.3,4.99,0.00,29.5,28.6,00.0,38.6,31.2,13.8,0003.7,0027.38,0008.86,0005.86
2022-05-02 02:18:00,,0820.3,5.02,0.00,29.5,28.6,00.0,38.6,31.2,13.9,0002.2,0025.87,0008.75,0005.84
2022-05-02 02:19:00,,0820.3,4.99,0.00,29.5,28.6,00.0,38.6,31.2,13.9,0003.6,0025.98,0008.69,0005.83
2022-05-02 02:20:00,,0820.3,5.00,0.00,29.5,28.6,00.0,38.6,31.2,13.9,0003.7,0026.23,0008.69,0005.82
2022-05-02 02:21:00,,0820.3,5.01,0.00,29.5,28.6,00.0,38.6,31.2,13.8,0003.7,0025.31,0008.63,0005.79
2022-05-02 02:22:00,,0820.3,5.02,0.00,29.5,28.6,00.0,38.6,31.2,13.9,0003.3,0024.54,0008.62,0005.78
2022-05-02 02:23:00,,0820.3,4.99,0.00,29.5,28.6,00.0,38.6,31.2,14.0,0002.8,0023.76,0008.58,0005.76
2022-05-02 02:24:00,,0820.3,5.00,0.00,29.5,28.6,00.0,38.6,31.2,14.0,0002.8,0024.22,0008.59,0005.75
2022-05-02 02:25:00,,0820.3,5.00,0.00,29.5,28.6,00.0,38.6,31.2,14.0,0002.9,0024.31,0008.60,0005.77
2022-05-02 02:26:00,,0820.4,4.99,0.00,29.5,28.5,00.0,38.5,31.1,14.1,0002.9,0023.40,0008.70,0005.82
2022-05-02 02:27:00,,0820.5,5.01,0.00,29.5,28.5,00.0,38.5,31.1,14.1,0002.6,0022.18,0008.70,0005.88
2022-05-02 02:28:00,,0820.5,4.98,0.00,29.4,28.5,00.0,38.5,31.1,14.2,0001.4,0021.86,0008.66,0005.92
2022-05-02 02:29:00,,0820.5,5.01,0.00,29.4,28.5,00.0,38.5,31.1,14.3,0001.5,0021.65,0008.68,0005.95
2022-05-02 02:30:00,,0820.5,4.99,0.00,29.4,28.5,00.0,38.5,31.1,14.4,0001.5,0021.74,0008.66,0005.99
2022-05-02 02:31:00,,0820.5,5.01,0.00,29.4,28.5,00.0,38.5,31.1,14.5,0001.1,0020.80,0008.69,0006.04
2022-05-02 02:32:00,,0820.5,5.00,0.00,29.4,28.5,00.0,38.5,31.1,14.6,0000.5,0021.80,0008.76,0006.08
2022-05-02 02:33:00,,0820.6,5.00,0.00,29.4,28.5,00.0,38.5,31.1,14.6,0001.1,0022.03,0008.85,0006.12
2022-05-02 02:34:00,,0820.6,5.01,0.00,29.4,28.5,00.0,38.5,31.1,14.7,0001.7,0022.41,0008.96,0006.16
2022-05-02 02:35:00,,0820.6,4.99,0.00,29.4,28.5,00.0,38.5,31.1,14.8,0001.6,0022.59,0008.94,0006.22
2022-05-02 02:36:00,,0820.6,5.02,0.00,29.4,28.5,00.0,38.4,31.1,14.8,0001.2,0022.91,0009.02,0006.25
2022-05-02 02:37:00,,0820.6,4.98,0.00,29.4,28.4,00.0,38.4,31.0,14.9,0001.2,0023.59,0009.07,0006.27
2022-05-02 02:38:00,,0820.7,5.01,0.00,29.4,28.4,00.0,38.4,31.0,15.0,0002.2,0023.94,0009.13,0006.27
2022-05-02 02:39:00,,0820.7,4.99,0.00,29.4,28.4,00.0,38.4,31.0,15.0,0003.3,0024.14,0009.17,0006.27
2022-05-02 02:40:00,,0820.8,5.01,0.00,29.4,28.4,00.0,38.4,31.0,15.1,0001.1,0024.37,0009.21,0006.29
2022-05-02 02:41:00,,0820.8,4.98,0.00,29.3,28.4,00.0,38.4,31.0,15.2,0000.0,0024.53,0009.28,0006.31
2022-05-02 02:42:00,,0820.9,5.02,0.00,29.3,28.4,00.0,38.4,30.9,15.3,0001.5,0025.34,0009.30,0006.31
2022-05-02 02:43:00,,0820.9,4.99,0.00,29.3,28.4,00.0,38.4,31.0,15.4,0004.3,0024.98,0009.37,0006.34
2022-05-02 02:44:00,,0820.8,4.99,0.00,29.3,28.4,00.0,38.4,31.0,15.4,0003.9,0024.93,0009.35,0006.37
2022-05-02 02:45:00,,0820.9,5.01,0.00,29.3,28.4,00.0,38.4,31.0,15.5,0003.5,0026.37,0009.35,0006.41
2022-05-02 02:46:00,,0820.9,5.00,0.00,29.3,28.4,00.0,38.4,31.0,15.5,0003.5,0027.12,0009.47,0006.42
2022-05-02 02:47:00,,0820.9,4.99,0.00,29.3,28.4,00.0,38.4,31.0,15.5,0003.9,0028.10,0009.59,0006.46
2022-05-02 02:48:00,,0821.0,5.01,0.00,29.3,28.4,00.0,38.4,31.0,15.4,0004.4,0028.12,0009.62,0006.49
2022-05-02 02:49:00,,0820.9,5.00,0.00,29.3,28.4,00.0,38.4,31.0,15.5,0004.1,0028.16,0009.63,0006.56
2022-05-02 02:50:00,,0821.0,4.98,0.00,29.3,28.4,00.0,38.4,31.0,15.5,0003.1,0029.54,0009.73,0006.62
2022-05-02 02:51:00,,0821.0,5.02,0.00,29.3,28.4,00.0,38.4,31.0,15.5,0002.4,0029.09,0009.82,0006.65
2022-05-02 02:52:00,,0821.0,4.98,0.00,29.3,28.4,00.0,38.3,31.1,15.5,0001.9,0028.92,0009.84,0006.67
2022-05-02 02:53:00,,0821.0,5.01,0.00,29.3,28.5,00.0,38.3,31.1,15.4,0001.3,0027.83,0009.81,0006.69
2022-05-02 02:54:00,,0821.0,4.99,0.00,29.3,28.5,00.0,38.3,31.1,15.4,0002.2,0027.58,0009.90,0006.70
2022-05-02 02:55:00,,0821.1,5.01,0.00,29.3,28.5,00.0,38.3,31.1,15.4,0002.4,0027.34,0009.97,0006.70
2022-05-02 02:56:00,,0821.1,4.99,0.00,29.4,28.5,00.0,38.3,31.1,15.4,0002.3,0025.73,0009.99,0006.71
2022-05-02 02:57:00,,0821.1,4.99,0.00,29.3,28.5,00.0,38.3,31.1,15.4,0002.3,0025.34,0010.02,0006.75
2022-05-02 02:58:00,,0821.1,5.02,0.00,29.3,28.5,00.0,38.3,31.1,15.4,0001.9,0025.12,0010.02,0006.76
2022-05-02 02:59:00,,0821.3,4.99,0.00,29.3,28.5,00.0,38.3,31.0,15.5,0001.3,0026.48,0010.09,0006.77
